sat.trackr.live / text

‹ back to catalog

STARLINK-35581

NORAD 66479 · 2025-262Z

PAYLOAD ACTIVE UNKNOWN

§ Identity

Operator
Country
US
Launch date
2025-11-15
Launch site
AFETR
Launch vehicle
Mass (kg)
RCS (m²)

Purposes: comms

External: N2YO · Heavens-Above · Gunter

§ Orbital elements

Epoch: 2026-05-24T22:44:51.306720Z

Period
94.27 min
Inclination
43.0033°
Eccentricity
0.0001686
Mean motion
15.27583378 rev/d
Perigee alt
481.9 km
Apogee alt
484.2 km
Semi-major
6,861.2 km
B*
6.5870e-4
RAAN
225.1076°
Arg perigee
271.9901°
Mean anomaly
88.0757°
Rev number
3,057

§ Raw data

STARLINK-355811 66479U 25262Z   26144.94781605  .00017910  00000+0  65870-3 0  99922 66479  43.0033 225.1076 0001686 271.9901  88.0757 15.27583378 30579

JSON: /api/v1/satellites/66479 · /tle

For live sub-satellite position, see the globe view (requires WebGL).

§ Visibility from observer

Set your observer location to see the next 7 days of passes ≥ 10°. The values pass through the URL so the page stays shareable.

No JS? Fill the form by hand. The geolocation button needs JavaScript.